QPF
0.00 0.00 0.00 0.00 0.00 0.00 0.00 0.00 0.00 0.00 0.00 0.00 0.00 0.00 0.00 0.00 0.00 0.00 0.00 0.00 0.00 0.00 0.00 0.00 0.00 0.00 0.00 0.00 0.00 0.00 0.00 0.03 0.08 0.06 0.02 0.00 0.00 0.00 0.00 0.00 0.00 0.00 0.00 0.00
0.00 0.00 0.00 0.00 0.00 0.00 0.00 0.00 0.00 0.00 0.00 0.00 0.00 0.00 0.00 0.00 0.00 0.00 0.00 0.00 0.00 0.00 0.00 0.00 0.00 0.00 0.00 0.00 0.00 0.00 0.01 0.04 0.08 0.04 0.00 0.00 0.00 0.00 0.00 0.00 0.00 0.00 0.00 0.00
0.00 0.00 0.00 0.00 0.00 0.00 0.00 0.00 0.00 0.00 0.00 0.00 0.00 0.00 0.00 0.00 0.00 0.00 0.00 0.00 0.00 0.00 0.00 0.00 0.00 0.00 0.00 0.00 0.00 0.00 0.09 0.17 0.14 0.04 0.00 0.00 0.00 0.00 0.00 0.00 0.00 0.00 0.01 0.00
0.00 0.00 0.00 0.00 0.00 0.00 0.00 0.00 0.00 0.00 0.00 0.00 0.00 0.00 0.00 0.00 0.00 0.00 0.00 0.00 0.00 0.00 0.00 0.00 0.00 0.00 0.00 0.00 0.00 0.00 0.26 0.26 0.16 0.08 0.01 0.00 0.00 0.00 0.00 0.00 0.00 0.00 0.00 0.00
0.00 0.00 0.00 0.00 0.00 0.00 0.00 0.00 0.00 0.00 0.00 0.00 0.00 0.00 0.00 0.00 0.00 0.00 0.00 0.00 0.00 0.00 0.00 0.00 0.00 0.00 0.00 0.00 0.00 0.02 0.27 0.14 0.11 0.07 0.00 0.00 0.00 0.00 0.00 0.01 0.02 0.00 0.02 0.00
0.00 0.00 0.00 0.00 0.00 0.00 0.00 0.00 0.00 0.00 0.00 0.00 0.00 0.00 0.00 0.00 0.00 0.00 0.00 0.00 0.00 0.00 0.00 0.00 0.00 0.00 0.00 0.00 0.00 0.38 0.53 0.16 0.12 0.06 0.03 0.00 0.00 0.00 0.00 0.00 0.02 0.09 0.12 0.06
0.00 0.00 0.00 0.00 0.00 0.00 0.00 0.00 0.00 0.00 0.00 0.00 0.00 0.00 0.00 0.00 0.00 0.00 0.00 0.00 0.00 0.00 0.00 0.00 0.00 0.00 0.00 0.03 0.09 0.29 0.39 0.12 0.12 0.10 0.01 0.00 0.00 0.01 0.15 0.20 0.11 0.20 0.22 0.13
0.00 0.00 0.00 0.00 0.00 0.00 0.00 0.00 0.00 0.00 0.00 0.00 0.00 0.00 0.00 0.00 0.00 0.00 0.00 0.00 0.00 0.00 0.00 0.01 0.02 0.00 0.00 0.02 0.10 0.11 0.02 0.12 0.05 0.03 0.00 0.00 0.01 0.05 0.08 0.06 0.16 0.19 0.11 0.03
0.00 0.00 0.00 0.00 0.00 0.00 0.00 0.00 0.00 0.00 0.00 0.00 0.00 0.00 0.00 0.00 0.00 0.00 0.00 0.00 0.00 0.05 0.13 0.27 0.26 0.25 0.15 0.04 0.04 0.03 0.00 0.01 0.00 0.00 0.00 0.00 0.00 0.00 0.03 0.14 0.11 0.10 0.01 0.00
0.00 0.00 0.00 0.00 0.00 0.00 0.00 0.00 0.00 0.00 0.00 0.00 0.00 0.00 0.00 0.00 0.00 0.00 0.00 0.00 0.00 0.09 0.33 0.44 0.35 0.25 0.26 0.11 0.01 0.00 0.00 0.00 0.00 0.00 0.00 0.00 0.00 0.00 0.00 0.02 0.04 0.04 0.00 0.00
0.00 0.00 0.00 0.00 0.00 0.00 0.00 0.00 0.00 0.00 0.00 0.00 0.00 0.00 0.00 0.00 0.00 0.00 0.00 0.00 0.00 0.05 0.19 0.17 0.13 0.25 0.41 0.32 0.07 0.00 0.00 0.00 0.00 0.00 0.00 0.00 0.00 0.00 0.00 0.00 0.00 0.00 0.00 0.00
0.00 0.00 0.00 0.00 0.00 0.00 0.00 0.00 0.00 0.00 0.00 0.00 0.00 0.00 0.00 0.00 0.00 0.00 0.00 0.00 0.01 0.04 0.24 0.42 0.42 0.39 0.33 0.34 0.09 0.01 0.01 0.00 0.00 0.00 0.00 0.00 0.00 0.00 0.00 0.00 0.00 0.00 0.00 0.00
0.00 0.00 0.00 0.00 0.00 0.00 0.00 0.00 0.00 0.00 0.00 0.00 0.00 0.00 0.00 0.00 0.00 0.00 0.00 0.00 0.00 0.00 0.04 0.27 0.71 0.21 0.20 0.20 0.04 0.01 0.00 0.00 0.00 0.00 0.00 0.00 0.00 0.00 0.00 0.00 0.00 0.00 0.00 0.00
0.00 0.00 0.00 0.00 0.00 0.00 0.00 0.00 0.00 0.00 0.00 0.00 0.00 0.00 0.00 0.00 0.00 0.00 0.00 0.00 0.00 0.00 0.00 0.01 0.04 0.11 0.14 0.11 0.02 0.00 0.00 0.00 0.00 0.00 0.00 0.00 0.00 0.00 0.00 0.00 0.00 0.00 0.00 0.00
0.00 0.00 0.00 0.00 0.00 0.00 0.00 0.00 0.00 0.00 0.00 0.00 0.00 0.00 0.00 0.00 0.00 0.00 0.00 0.00 0.00 0.00 0.04 0.04 0.02 0.08 0.07 0.03 0.01 0.00 0.00 0.00 0.00 0.00 0.00 0.00 0.00 0.00 0.00 0.00 0.00 0.00 0.00 0.00
0.00 0.00 0.00 0.00 0.00 0.00 0.00 0.00 0.00 0.00 0.00 0.00 0.00 0.00 0.00 0.00 0.00 0.00 0.00 0.00 0.00 0.00 0.02 0.04 0.13 0.10 0.03 0.01 0.01 0.00 0.00 0.00 0.00 0.00 0.00 0.00 0.00 0.00 0.00 0.00 0.00 0.00 0.00 0.00
0.00 0.00 0.00 0.00 0.00 0.00 0.00 0.00 0.00 0.00 0.00 0.00 0.00 0.00 0.00 0.00 0.00 0.00 0.00 0.00 0.00 0.00 0.00 0.00 0.02 0.02 0.01 0.00 0.00 0.00 0.00 0.00 0.00 0.00 0.00 0.00 0.00 0.00 0.00 0.00 0.00 0.00 0.00 0.02
0.00 0.00 0.00 0.00 0.00 0.00 0.00 0.00 0.00 0.00 0.00 0.00 0.00 0.00 0.00 0.00 0.00 0.00 0.00 0.00 0.00 0.00 0.00 0.00 0.02 0.03 0.00 0.00 0.00 0.00 0.00 0.00 0.00 0.00 0.00 0.00 0.00 0.00 0.00 0.00 0.00 0.00 0.00 0.04
0.00 0.00 0.00 0.00 0.00 0.00 0.00 0.00 0.00 0.00 0.00 0.00 0.00 0.00 0.00 0.00 0.00 0.00 0.00 0.00 0.00 0.01 0.04 0.08 0.04 0.02 0.01 0.01 0.00 0.00 0.00 0.00 0.00 0.00 0.00 0.00 0.00 0.00 0.00 0.00 0.00 0.00 0.00 0.00
0.00 0.00 0.00 0.00 0.00 0.00 0.00 0.00 0.00 0.00 0.00 0.00 0.00 0.00 0.00 0.00 0.00 0.00 0.00 0.00 0.02 0.09 0.16 0.14 0.16 0.14 0.07 0.04 0.02 0.00 0.02 0.02 0.00 0.00 0.00 0.00 0.00 0.00 0.00 0.00 0.00 0.00 0.00 0.00
0.00 0.00 0.00 0.00 0.00 0.00 0.00 0.00 0.00 0.00 0.00 0.00 0.00 0.00 0.00 0.00 0.00 0.00 0.00 0.00 0.04 0.13 0.15 0.15 0.18 0.17 0.22 0.16 0.06 0.01 0.02 0.02 0.00 0.00 0.00 0.00 0.00 0.01 0.03 0.03 0.00 0.01 0.00 0.00
0.00 0.00 0.00 0.00 0.00 0.00 0.00 0.00 0.00 0.00 0.00 0.00 0.00 0.00 0.00 0.00 0.01 0.05 0.14 0.15 0.12 0.11 0.12 0.19 0.18 0.13 0.14 0.17 0.15 0.05 0.04 0.03 0.01 0.04 0.09 0.05 0.02 0.05 0.17 0.13 0.02 0.02 0.02 0.01
0.00 0.00 0.00 0.00 0.00 0.00 0.00 0.00 0.00 0.00 0.00 0.01 0.00 0.02 0.02 0.02 0.04 0.02 0.03 0.03 0.08 0.14 0.13 0.11 0.14 0.10 0.12 0.17 0.19 0.11 0.03 0.04 0.03 0.12 0.12 0.12 0.11 0.11 0.22 0.20 0.07 0.06 0.08 0.05
0.00 0.00 0.00 0.00 0.00 0.00 0.00 0.00 0.00 0.00 0.00 0.00 0.00 0.00 0.01 0.03 0.03 0.01 0.02 0.02 0.12 0.14 0.10 0.07 0.04 0.07 0.10 0.13 0.10 0.16 0.23 0.10 0.06 0.12 0.07 0.14 0.14 0.08 0.07 0.04 0.02 0.03 0.02 0.05
0.00 0.00 0.00 0.00 0.00 0.00 0.00 0.00 0.00 0.00 0.00 0.00 0.00 0.00 0.00 0.02 0.01 0.00 0.00 0.00 0.08 0.18 0.11 0.07 0.06 0.04 0.05 0.07 0.11 0.12 0.20 0.09 0.01 0.07 0.10 0.09 0.04 0.02 0.01 0.01 0.03 0.02 0.01 0.02
0.00 0.00 0.00 0.00 0.00 0.00 0.00 0.00 0.00 0.00 0.00 0.00 0.00 0.00 0.00 0.00 0.00 0.01 0.01 0.01 0.04 0.07 0.09 0.03 0.00 0.01 0.03 0.07 0.10 0.12 0.14 0.08 0.02 0.01 0.03 0.04 0.01 0.01 0.00 0.00 0.00 0.00 0.01 0.02
MSLP
1006.39 1007.14 1007.50 1007.74 1007.84 1007.72 1007.71 1007.58 1006.96 1005.48 1005.37 1005.95 1006.21 1006.26 1006.57 1006.51 1007.40 1007.52 1007.57 1007.63 1007.61 1007.68 1007.76 1008.45 1008.48 1008.86 1009.41 1010.14 1010.92 1011.61 1012.56 1013.08 1013.33 1013.78 1014.12 1014.39 1014.53 1014.55 1014.59 1014.37 1014.11 1014.13 1014.05 1014.33
1007.16 1007.18 1006.88 1007.05 1007.34 1007.59 1007.58 1007.39 1006.53 1005.57 1005.07 1005.83 1005.77 1005.67 1005.87 1006.40 1006.04 1005.90 1006.12 1006.90 1007.34 1007.67 1007.96 1008.27 1008.55 1008.94 1009.32 1010.06 1010.84 1011.23 1011.83 1012.49 1012.83 1013.18 1013.53 1013.68 1014.20 1014.38 1014.27 1014.25 1014.09 1013.94 1014.08 1014.23
1006.89 1006.23 1006.27 1006.67 1006.89 1007.21 1007.12 1006.99 1006.13 1005.90 1005.04 1004.94 1005.18 1005.58 1005.85 1006.26 1006.25 1006.17 1006.44 1006.47 1007.35 1007.10 1007.78 1007.90 1008.49 1009.04 1009.51 1010.34 1010.71 1010.87 1011.80 1012.33 1012.92 1013.32 1013.34 1013.63 1013.95 1014.13 1014.18 1014.21 1014.22 1013.98 1013.96 1014.09
1006.38 1005.59 1005.82 1005.87 1006.14 1006.35 1006.58 1005.87 1005.74 1005.90 1006.22 1006.23 1006.14 1006.89 1006.30 1005.89 1006.07 1006.05 1006.04 1006.23 1006.68 1007.11 1007.79 1007.82 1008.23 1009.03 1009.65 1009.93 1010.35 1010.54 1010.59 1011.94 1012.56 1013.03 1013.35 1013.40 1013.67 1014.10 1014.03 1013.98 1014.09 1014.05 1013.74 1013.83
1005.61 1005.35 1005.37 1005.33 1005.05 1005.26 1005.23 1005.09 1005.56 1006.12 1007.18 1007.58 1007.46 1007.93 1006.75 1006.57 1006.19 1005.72 1005.54 1005.85 1006.43 1006.94 1007.36 1007.47 1007.87 1008.51 1009.26 1009.75 1009.10 1008.67 1009.21 1010.27 1012.19 1012.64 1012.69 1013.19 1013.53 1013.76 1013.81 1013.86 1014.12 1014.24 1014.31 1014.09
1005.41 1004.84 1004.67 1004.16 1003.88 1004.26 1004.48 1005.45 1006.63 1007.63 1008.59 1009.56 1008.21 1008.37 1007.66 1006.91 1005.72 1005.09 1005.02 1005.18 1006.05 1006.62 1007.04 1007.65 1008.15 1008.97 1009.49 1009.53 1008.27 1008.74 1008.77 1009.95 1012.17 1012.50 1012.45 1012.76 1013.03 1013.38 1013.83 1014.10 1014.26 1014.42 1014.45 1014.65
1005.47 1004.71 1004.19 1003.78 1003.96 1004.14 1005.02 1006.57 1008.18 1009.99 1010.81 1010.14 1008.91 1008.85 1007.42 1006.10 1005.56 1005.08 1004.82 1005.13 1005.63 1006.40 1007.18 1008.00 1008.39 1008.61 1009.49 1009.69 1009.59 1009.54 1009.17 1011.08 1012.18 1012.68 1012.53 1012.65 1012.88 1013.09 1013.58 1013.88 1014.12 1014.59 1014.77 1014.89
1006.05 1005.12 1003.95 1003.51 1003.74 1004.20 1005.18 1006.44 1008.13 1009.85 1010.96 1010.08 1008.98 1008.20 1006.43 1006.23 1005.77 1005.17 1005.09 1005.69 1006.45 1007.64 1008.67 1010.02 1010.57 1011.40 1009.71 1009.62 1010.11 1010.33 1010.71 1011.64 1012.08 1012.61 1012.72 1012.69 1013.05 1013.13 1013.31 1013.59 1013.92 1014.46 1014.75 1014.69
1006.03 1004.94 1003.88 1003.35 1003.36 1003.86 1005.11 1006.23 1007.31 1009.28 1010.79 1010.60 1009.43 1008.12 1006.81 1006.30 1006.57 1006.25 1006.61 1006.69 1007.48 1007.70 1008.18 1009.14 1010.95 1012.15 1011.75 1009.96 1009.54 1010.30 1010.92 1011.48 1011.79 1012.63 1012.92 1013.10 1013.17 1013.51 1013.69 1013.68 1013.75 1014.27 1014.56 1014.63
1005.15 1005.30 1004.06 1003.35 1003.19 1003.58 1004.10 1005.35 1007.50 1009.29 1010.66 1011.11 1010.03 1009.25 1008.43 1007.86 1007.98 1008.14 1007.96 1007.72 1008.20 1008.20 1008.78 1007.93 1010.75 1011.30 1011.39 1010.20 1009.44 1009.95 1010.96 1011.65 1011.74 1012.68 1013.04 1013.45 1013.61 1013.67 1013.64 1013.57 1013.80 1014.02 1014.34 1014.68
1005.24 1005.51 1004.58 1004.00 1003.86 1003.76 1004.57 1005.50 1007.08 1008.80 1009.77 1010.64 1010.64 1009.89 1008.94 1008.37 1008.27 1008.53 1009.02 1008.38 1008.24 1008.88 1008.93 1009.97 1010.23 1008.97 1010.57 1010.48 1009.51 1010.41 1011.52 1011.94 1012.00 1012.64 1013.42 1013.92 1013.91 1013.97 1013.85 1013.93 1014.12 1013.86 1014.30 1014.56
1004.75 1005.58 1005.67 1004.81 1004.04 1003.87 1004.21 1004.96 1006.21 1008.56 1009.96 1010.45 1010.20 1009.38 1009.18 1008.97 1008.69 1008.54 1009.51 1009.31 1009.37 1009.05 1009.12 1009.09 1009.15 1008.35 1009.26 1011.03 1009.93 1010.71 1011.77 1011.94 1012.19 1012.56 1013.61 1014.24 1014.31 1014.06 1014.16 1014.10 1014.37 1014.29 1014.47 1014.42
1004.89 1005.98 1006.18 1005.53 1004.87 1004.10 1004.36 1004.75 1006.00 1007.26 1008.40 1010.03 1010.25 1009.22 1008.89 1009.33 1008.93 1008.74 1008.77 1008.88 1009.46 1009.07 1008.68 1007.26 1007.84 1008.19 1009.46 1010.51 1010.60 1011.02 1012.22 1012.15 1012.39 1012.38 1013.38 1014.22 1014.15 1014.20 1014.37 1014.37 1014.38 1014.47 1014.52 1014.70
1004.82 1006.49 1006.19 1006.00 1005.18 1004.43 1004.43 1004.70 1005.51 1006.45 1007.97 1009.14 1009.15 1008.96 1008.78 1008.70 1008.59 1008.28 1008.26 1008.75 1009.48 1009.75 1009.47 1008.75 1008.87 1009.11 1010.23 1010.35 1010.58 1011.20 1012.29 1012.54 1012.76 1012.85 1013.40 1014.14 1014.17 1014.10 1014.38 1014.61 1014.92 1015.09 1015.18 1015.20
1005.59 1006.81 1006.60 1005.87 1005.31 1004.64 1004.19 1004.42 1005.09 1005.85 1006.68 1007.90 1007.65 1008.58 1007.58 1007.11 1006.87 1007.11 1008.08 1008.61 1009.01 1009.11 1008.68 1008.77 1008.85 1009.31 1009.62 1010.17 1010.79 1011.60 1012.09 1012.31 1012.82 1013.17 1013.45 1014.24 1014.39 1014.40 1014.31 1014.56 1015.07 1015.45 1015.85 1015.94
1006.70 1007.36 1007.11 1006.71 1005.91 1005.14 1004.43 1004.37 1004.71 1005.33 1006.28 1007.14 1007.20 1007.76 1006.88 1006.92 1007.15 1007.49 1007.19 1007.39 1008.44 1007.63 1007.51 1007.85 1008.59 1008.74 1008.95 1009.74 1010.75 1011.37 1011.52 1011.89 1012.62 1013.20 1013.84 1014.42 1014.39 1014.79 1014.67 1014.78 1014.92 1015.04 1015.58 1016.08
1007.70 1007.87 1008.00 1007.67 1006.82 1005.92 1005.57 1005.34 1005.32 1005.82 1006.45 1007.34 1007.94 1007.11 1006.72 1006.79 1006.87 1006.68 1006.84 1006.90 1006.97 1007.03 1007.21 1007.96 1008.06 1008.55 1009.11 1009.29 1009.81 1010.21 1010.70 1011.42 1011.99 1012.70 1013.41 1013.85 1014.10 1014.58 1014.80 1014.91 1015.05 1015.09 1015.52 1015.95
1007.87 1008.59 1008.97 1008.81 1007.88 1007.23 1006.50 1006.24 1006.18 1006.83 1008.12 1008.67 1008.67 1007.89 1006.99 1005.95 1005.25 1006.20 1007.11 1007.13 1007.20 1007.33 1007.28 1007.59 1008.04 1008.89 1009.30 1009.00 1009.80 1010.32 1010.77 1011.00 1011.54 1012.48 1013.00 1013.40 1013.72 1014.11 1014.33 1014.96 1015.22 1015.14 1015.44 1015.87
1007.79 1008.77 1009.64 1009.74 1009.35 1008.39 1007.49 1008.16 1008.48 1008.83 1009.19 1009.41 1009.31 1008.38 1007.15 1007.39 1007.23 1006.80 1006.77 1007.02 1007.21 1007.06 1007.20 1007.98 1008.37 1008.91 1008.80 1009.75 1010.17 1009.85 1010.51 1010.83 1011.47 1011.95 1012.54 1012.98 1013.04 1013.65 1014.10 1014.55 1014.89 1015.02 1015.32 1015.92
1008.94 1008.96 1009.94 1010.95 1010.65 1010.13 1010.35 1009.40 1009.33 1009.81 1010.41 1010.63 1010.34 1009.33 1008.42 1008.00 1008.71 1008.39 1008.22 1007.83 1007.69 1007.52 1007.75 1007.91 1008.49 1009.28 1009.58 1010.16 1010.92 1010.61 1010.85 1010.84 1011.11 1011.38 1011.91 1012.18 1012.73 1013.35 1013.86 1014.17 1014.50 1014.54 1014.95 1015.34
1010.15 1010.79 1011.08 1011.28 1011.20 1011.34 1011.06 1010.10 1009.59 1010.76 1011.90 1011.49 1011.34 1010.52 1009.45 1009.34 1009.82 1009.41 1009.10 1008.79 1008.46 1008.94 1008.25 1007.83 1008.49 1009.61 1010.45 1010.39 1010.93 1010.61 1011.28 1010.83 1010.48 1010.91 1011.51 1012.21 1012.85 1013.29 1013.30 1013.78 1013.88 1014.07 1014.50 1014.97
1011.79 1012.17 1012.59 1012.50 1012.28 1012.56 1011.71 1010.94 1011.66 1013.02 1012.29 1012.07 1011.97 1011.21 1010.52 1010.00 1009.60 1009.37 1009.40 1009.25 1008.85 1007.98 1008.53 1008.54 1009.29 1009.41 1010.07 1010.21 1010.55 1010.39 1011.27 1011.06 1010.45 1010.78 1011.52 1012.06 1012.45 1013.29 1013.27 1013.11 1013.37 1013.99 1014.20 1014.82
1012.48 1012.64 1013.01 1013.60 1013.59 1013.38 1013.37 1013.23 1013.30 1013.38 1013.17 1012.32 1012.02 1011.75 1011.17 1010.73 1010.42 1009.92 1009.76 1009.28 1009.75 1009.02 1008.54 1009.16 1009.96 1009.87 1009.44 1010.72 1011.00 1010.94 1010.80 1010.85 1010.34 1011.05 1011.49 1012.26 1012.28 1012.29 1013.02 1013.47 1013.70 1014.03 1014.45 1014.65
1012.64 1012.64 1013.28 1013.75 1013.75 1013.82 1013.71 1013.73 1013.71 1013.47 1013.21 1012.70 1012.21 1011.72 1011.45 1011.10 1011.04 1010.66 1010.34 1009.69 1008.72 1009.43 1009.98 1009.52 1009.80 1009.37 1010.11 1010.73 1010.97 1010.77 1011.30 1010.90 1010.40 1011.13 1011.33 1011.66 1012.14 1012.47 1012.56 1013.22 1013.50 1013.69 1014.07 1014.36
1012.87 1012.73 1013.50 1013.82 1013.64 1013.71 1013.84 1013.70 1013.83 1013.34 1012.86 1012.62 1012.13 1011.48 1011.27 1011.00 1010.60 1010.28 1010.05 1009.97 1009.80 1010.05 1010.38 1010.07 1010.09 1010.01 1010.09 1010.78 1011.55 1011.80 1011.52 1011.26 1011.26 1011.58 1011.81 1012.05 1011.94 1012.28 1012.89 1013.26 1014.05 1013.91 1013.99 1014.16
1012.97 1013.08 1013.39 1013.70 1013.56 1013.77 1013.71 1013.62 1013.78 1013.63 1013.08 1012.57 1012.39 1011.68 1010.89 1010.29 1009.94 1010.09 1010.15 1009.97 1010.21 1009.92 1010.08 1010.18 1010.26 1009.97 1011.30 1011.26 1012.04 1012.03 1011.91 1011.61 1011.82 1012.01 1012.30 1012.54 1012.46 1013.02 1013.19 1013.53 1014.02 1014.36 1014.26 1014.16
Thickness
5812 5795 5781 5795 5799 5806 5804 5797 5799 5826 5836 5820 5812 5822 5826 5836 5832 5831 5832 5834 5836 5836 5840 5833 5833 5829 5817 5809 5800 5794 5782 5776 5772 5766 5758 5752 5747 5746 5743 5742 5743 5743 5742 5740
5789 5779 5803 5809 5807 5801 5798 5793 5801 5824 5837 5822 5821 5828 5834 5832 5841 5847 5846 5837 5837 5834 5832 5831 5829 5825 5817 5807 5800 5797 5788 5780 5776 5772 5765 5760 5751 5748 5747 5744 5744 5744 5742 5740
5779 5796 5813 5806 5801 5794 5795 5792 5803 5807 5830 5839 5833 5817 5826 5833 5841 5847 5845 5845 5839 5839 5829 5830 5827 5819 5814 5803 5799 5797 5783 5776 5774 5769 5767 5761 5755 5750 5745 5743 5741 5742 5742 5741
5790 5809 5805 5800 5793 5797 5777 5814 5822 5815 5807 5779 5822 5767 5806 5826 5828 5836 5841 5840 5839 5838 5833 5832 5828 5816 5810 5806 5801 5796 5791 5778 5774 5769 5764 5760 5753 5746 5745 5742 5740 5739 5741 5740
5788 5800 5798 5793 5803 5809 5799 5822 5818 5816 5796 5789 5794 5770 5796 5815 5818 5826 5839 5840 5841 5839 5836 5833 5831 5823 5813 5808 5803 5796 5794 5786 5774 5772 5769 5758 5749 5747 5744 5741 5737 5734 5733 5735
5796 5815 5810 5808 5822 5820 5829 5814 5791 5781 5767 5745 5781 5773 5778 5796 5816 5833 5841 5844 5843 5840 5837 5835 5830 5819 5811 5810 5806 5786 5768 5781 5773 5770 5770 5762 5752 5746 5739 5734 5732 5728 5728 5727
5788 5796 5813 5823 5808 5816 5805 5776 5737 5740 5732 5733 5773 5764 5782 5816 5825 5834 5841 5843 5843 5841 5835 5827 5820 5817 5808 5804 5800 5795 5796 5778 5770 5764 5765 5760 5752 5745 5736 5728 5723 5719 5719 5720
5752 5752 5800 5821 5807 5798 5798 5780 5740 5733 5725 5745 5775 5765 5793 5820 5828 5836 5843 5839 5833 5821 5814 5797 5789 5789 5805 5804 5798 5794 5786 5775 5773 5765 5760 5757 5748 5743 5734 5725 5719 5713 5715 5718
5742 5758 5803 5813 5818 5812 5794 5775 5786 5741 5735 5737 5752 5778 5808 5820 5814 5825 5821 5819 5816 5818 5815 5806 5786 5775 5776 5795 5803 5796 5788 5780 5777 5763 5757 5750 5746 5737 5729 5722 5718 5712 5713 5717
5775 5755 5790 5808 5817 5815 5803 5801 5761 5740 5731 5730 5740 5758 5765 5794 5796 5803 5805 5808 5809 5810 5807 5810 5773 5779 5773 5784 5802 5800 5787 5776 5776 5763 5755 5746 5741 5735 5731 5726 5718 5715 5715 5716
5771 5764 5777 5800 5789 5791 5786 5779 5765 5752 5741 5724 5721 5742 5774 5789 5800 5798 5796 5805 5807 5800 5803 5782 5769 5783 5769 5770 5791 5789 5776 5770 5770 5762 5749 5740 5737 5731 5730 5726 5719 5722 5718 5716
5778 5755 5747 5766 5798 5807 5800 5788 5773 5738 5744 5731 5734 5748 5780 5784 5792 5801 5792 5796 5794 5798 5795 5789 5777 5775 5752 5760 5783 5780 5771 5770 5766 5761 5746 5735 5731 5731 5726 5726 5722 5720 5718 5719
5775 5743 5732 5747 5769 5791 5788 5792 5771 5754 5744 5728 5729 5747 5783 5779 5786 5795 5795 5798 5791 5793 5799 5809 5798 5790 5777 5769 5779 5776 5765 5765 5761 5761 5747 5735 5733 5729 5724 5722 5721 5719 5718 5716
5776 5740 5748 5736 5754 5775 5779 5786 5781 5766 5741 5737 5740 5767 5771 5781 5784 5793 5796 5796 5786 5785 5788 5791 5789 5781 5772 5771 5778 5774 5763 5758 5755 5754 5745 5734 5731 5729 5724 5719 5713 5711 5710 5710
5766 5744 5757 5762 5769 5779 5784 5785 5778 5776 5770 5757 5768 5755 5779 5793 5800 5800 5794 5793 5789 5789 5791 5786 5781 5778 5777 5776 5775 5768 5763 5758 5752 5747 5742 5732 5730 5726 5723 5718 5709 5705 5702 5702
5751 5738 5751 5753 5764 5769 5778 5786 5786 5784 5769 5765 5764 5763 5787 5793 5794 5790 5798 5798 5789 5800 5802 5797 5787 5780 5782 5780 5772 5768 5765 5760 5751 5743 5736 5729 5727 5720 5719 5717 5713 5707 5699 5695
5737 5732 5729 5733 5744 5757 5744 5765 5773 5774 5766 5759 5750 5775 5787 5786 5787 5791 5794 5795 5798 5800 5799 5791 5788 5785 5781 5780 5777 5773 5768 5761 5754 5746 5737 5732 5727 5720 5715 5713 5710 5707 5696 5691
5729 5724 5714 5717 5732 5716 5749 5764 5767 5760 5751 5748 5751 5764 5779 5794 5806 5797 5789 5790 5789 5793 5796 5791 5786 5777 5777 5780 5772 5768 5763 5760 5754 5743 5738 5733 5728 5720 5717 5710 5706 5706 5700 5690
5736 5715 5707 5704 5701 5725 5747 5736 5734 5729 5735 5737 5738 5754 5775 5777 5780 5784 5793 5792 5790 5791 5789 5779 5775 5772 5777 5768 5766 5768 5760 5757 5749 5744 5736 5731 5730 5721 5715 5710 5708 5705 5700 5689
5711 5712 5704 5687 5698 5698 5706 5728 5733 5728 5707 5723 5728 5738 5750 5763 5744 5761 5770 5778 5779 5782 5776 5773 5769 5754 5759 5757 5754 5755 5751 5751 5748 5745 5739 5735 5726 5719 5714 5711 5707 5707 5700 5694
5682 5678 5683 5680 5686 5685 5705 5717 5726 5705 5699 5710 5715 5722 5732 5738 5736 5748 5755 5758 5762 5759 5765 5768 5758 5747 5738 5739 5742 5747 5745 5746 5749 5745 5738 5729 5721 5714 5714 5709 5708 5706 5700 5693
5665 5664 5661 5669 5677 5677 5698 5708 5693 5685 5696 5701 5702 5712 5719 5727 5733 5739 5740 5744 5747 5753 5753 5746 5742 5747 5742 5735 5737 5742 5734 5740 5744 5739 5731 5722 5719 5710 5709 5711 5710 5702 5698 5690
5655 5661 5655 5661 5657 5672 5674 5679 5681 5681 5683 5695 5699 5702 5708 5714 5718 5726 5728 5732 5728 5737 5744 5737 5733 5737 5741 5725 5725 5723 5731 5733 5738 5730 5726 5717 5715 5714 5708 5703 5701 5697 5692 5688
5657 5662 5652 5655 5662 5661 5666 5669 5671 5674 5678 5687 5694 5700 5703 5703 5706 5714 5716 5721 5728 5723 5717 5724 5725 5732 5725 5720 5719 5720 5721 5725 5732 5723 5721 5718 5713 5708 5706 5699 5695 5693 5690 5685
5648 5658 5647 5648 5659 5657 5660 5662 5661 5667 5675 5680 5688 5694 5695 5698 5702 5707 5710 5708 5707 5705 5702 5707 5709 5714 5719 5715 5706 5707 5712 5716 5718 5713 5712 5708 5707 5702 5697 5693 5684 5684 5683 5680
5643 5643 5638 5636 5650 5647 5651 5655 5655 5655 5666 5672 5674 5682 5691 5698 5701 5698 5696 5698 5696 5695 5692 5693 5698 5699 5691 5700 5694 5695 5698 5704 5703 5702 5699 5696 5697 5690 5687 5685 5679 5671 5672 5672